Flag for China Weather past 2 weeks in Guangzhou, Guangdong, China

Now
68 °F

Fog.


Feels Like: 68 °F
Forecast: 65 / 80 °F
Wind: 3 mph from Southeast

Location: Canton Airport

Current Time: Mar 29, 2015 at 7:01:11 AM

Latest Report: Mar 29, 2015 at 6:30 AM


Visibility: 2 mi

Pressure: 30.01 "Hg

Humidity: 88%

Dew point: 64 °F

Location of GuangzhouLocation

Historic Weather in Guangzhou — Graph

°F

Guangzhou temperature yesterday

Maximum temperature yesterday: 82 °F (at 1:30 PM)
Minimum temperature yesterday: 64 °F (at 5:30 AM)
Average temperature yesterday: 73 °F

Past Weeks' High & Low Weather Summary

 TemperatureHumidityPressure
High86 °F (Mar 19, 3:30 PM)100% (Mar 15, 3:30 AM)30.30 "Hg (Mar 15, 3:30 AM)
Low61 °F (Mar 26, 5:30 AM)51% (Mar 20, 4:00 PM)29.77 "Hg (Mar 17, 4:00 PM)
Average72 °F81%30.04 "Hg
* Reported Mar 14 6:00 AM — Mar 29 6:00 AM, Guangzhou, Weather by CustomWeather, © 2015

Note: Actual official high and low records may vary slightly from our data, if they occured in-between our weather recording intervals... More about our weather records

Advertising

Guangzhou weather history for previous 24 hours

 ConditionsComfort  
Time TempWeatherWind HumidityBarometerVisibility
6:00 AM
Sun, Mar 29
68 °FFog.3 mph88%30.01 "Hg3 mi
5:30 AM68 °FFog.3 mph88%30.01 "Hg3 mi
5:00 AM68 °FFog.1 mph88%29.98 "Hg3 mi
4:30 AM68 °FFog.1 mph88%29.98 "Hg3 mi
4:00 AM68 °FFog.3 mph88%29.98 "Hg3 mi
3:30 AM68 °FFog.1 mph88%29.98 "Hg3 mi
3:00 AM68 °FPassing clouds.3 mph88%29.98 "Hg4 mi
2:30 AM70 °FPassing clouds.1 mph83%30.01 "Hg4 mi
2:00 AM70 °FPassing clouds.1 mph83%30.01 "Hg4 mi
1:30 AM70 °FPassing clouds.No wind83%30.01 "Hg4 mi
1:00 AM70 °FPassing clouds.1 mph83%30.01 "Hg4 mi
12:30 AM70 °FClear.1 mph83%30.01 "Hg4 mi
12:00 AM72 °FClear.1 mph78%30.01 "Hg4 mi
11:30 PM
Sat, Mar 28
72 °FClear.1 mph78%30.01 "Hg4 mi
11:00 PM73 °FClear.3 mph74%30.01 "Hg4 mi
10:30 PM73 °FClear.3 mph74%30.01 "Hg4 mi
10:00 PM75 °FClear.6 mph69%30.01 "Hg4 mi
9:30 PM75 °FClear.3 mph69%30.01 "Hg4 mi
9:00 PM75 °FClear.1 mph69%30.01 "Hg4 mi
8:30 PM77 °FClear.1 mph65%30.01 "Hg4 mi
8:00 PM77 °FClear.1 mph65%30.01 "Hg4 mi
7:30 PM77 °FClear.3 mph61%30.01 "Hg4 mi
7:00 PM79 °FPassing clouds.6 mph54%29.98 "Hg4 mi
6:30 PM79 °FPartly sunny.6 mph58%29.98 "Hg3 mi
6:00 PM79 °FPartly sunny.3 mph58%29.98 "Hg3 mi
5:30 PM79 °FPartly sunny.3 mph54%29.98 "Hg3 mi
5:00 PM81 °FPartly sunny.3 mph51%29.98 "Hg4 mi
4:30 PM81 °FPartly sunny.3 mph54%29.98 "Hg4 mi
4:00 PM81 °FPartly sunny.6 mph51%29.98 "Hg4 mi
3:30 PM81 °FPartly sunny.3 mph51%29.98 "Hg4 mi
3:00 PM81 °FPartly sunny.1 mph51%29.98 "Hg4 mi
2:30 PM81 °FPartly sunny.3 mph51%30.01 "Hg4 mi
2:00 PM81 °FScattered clouds.6 mph54%30.01 "Hg4 mi
1:30 PM82 °FScattered clouds.1 mph51%30.04 "Hg5 mi
1:00 PM81 °FScattered clouds.1 mph51%30.07 "Hg5 mi
12:30 PM79 °FScattered clouds.3 mph58%30.07 "Hg5 mi
12:00 PM79 °FScattered clouds.1 mph54%30.09 "Hg5 mi
11:30 AM77 °FPartly sunny.3 mph61%30.09 "Hg5 mi
11:00 AM75 °FPartly sunny.3 mph65%30.12 "Hg5 mi
10:30 AM73 °FPartly sunny.1 mph65%30.12 "Hg5 mi
10:00 AM73 °FPassing clouds.No wind69%30.12 "Hg5 mi
9:30 AM72 °FClear.1 mph69%30.12 "Hg5 mi
9:00 AM70 °FPartly sunny.3 mph73%30.12 "Hg5 mi
8:30 AM70 °FPassing clouds.3 mph69%30.12 "Hg5 mi
8:00 AM68 °FPassing clouds.3 mph73%30.12 "HgN/A
7:30 AM66 °FPassing clouds.3 mph78%30.09 "HgN/A
7:00 AM64 °FSunny.1 mph83%30.09 "Hg10 mi
Weather by CustomWeather, © 2015

See weather overviewHow to use our weather pages